Weather History for KEST - October, 2014

Change the Weather History Date:

Friday, October 24, 2014

  Actual Average Record
Temperature  
Mean Temperature 59 °F 44 °F  
Max Temperature 75 °F 55 °F 81 °F (1989)
Min Temperature 43 °F 33 °F 19 °F (1999)
Degree Days  
Heating Degree Days 6 21  
Month to date heating degree days 363 382  
Since 1 July heating degree days 577 590  
Cooling Degree Days 0 0  
Month to date cooling degree days 0 4  
Year to date cooling degree days 435 591  
Growing Degree Days 10 (Base 50)    
Moisture  
Dew Point 45 °F    
Average Humidity 61    
Maximum Humidity 93    
Minimum Humidity 28    
Precipitation  
Precipitation 0.00 in 0.05 in 0.45 in (1976)
Month to date precipitation 1.24 1.87  
Sea Level Pressure  
Sea Level Pressure 29.91 in    
Wind  
Wind Speed 9 mph (WSW)    
Max Wind Speed 15 mph    
Max Gust Speed 18 mph    
Visibility 9 miles    
Events      
T = Trace of Precipitation, MM = Missing Value Source: NWS Daily Summary

Daily Weather History Graph

Daily Weather History Graph

Search for Another Location

Airport or City:

Trip Planner

Search our weather history database for the weather conditions in past years. The results will help you decide how hot, cold, wet, or windy it might be!

Date:

Astronomy

Oct. 24, 2014 Rise Set
Actual Time 7:44 AM CDT 6:21 PM CDT
Civil Twilight 7:14 AM CDT 6:50 PM CDT
Nautical Twilight 6:41 AM CDT 7:24 PM CDT
Astronomical Twilight 6:08 AM CDT 7:57 PM CDT
Moon 8:24 AM CDT (10/24) 7:00 PM CDT (10/24)
Length of Visible Light 11h 35m
Length of Day
10h 37m
New Moon, 1% of the Moon is Illuminated
Oct 24
New Moon
Oct 30
First Quarter
Nov 6
Full
Nov 14
Last Quarter
Nov 22
New

Hourly Weather History & Observations

Time (CDT) Temp. Windchill Dew Point Humidity Pressure Visibility Wind Dir Wind Speed Gust Speed Precip Events Conditions
12:52 AM 44.1 °F 39.5 °F 39.9 °F 85% 29.98 in 10.0 mi South 8.1 mph - N/A   Clear
1:52 AM 45.0 °F 40.6 °F 41.0 °F 86% 29.96 in 10.0 mi South 8.1 mph - N/A   Clear
2:52 AM 44.1 °F 39.5 °F 39.9 °F 85% 29.95 in 10.0 mi South 8.1 mph - N/A   Clear
3:52 AM 46.0 °F 41.0 °F 42.1 °F 86% 29.93 in 10.0 mi South 10.4 mph - N/A   Clear
4:52 AM 46.0 °F 41.4 °F 42.1 °F 86% 29.90 in 10.0 mi South 9.2 mph - N/A   Clear
5:52 AM 46.9 °F - 44.1 °F 90% 29.88 in 10.0 mi South 13.8 mph - N/A   Clear
6:52 AM 48.0 °F - 45.0 °F 89% 29.87 in 9.0 mi South 10.4 mph - N/A   Clear
7:52 AM 48.0 °F - 46.0 °F 93% 29.87 in 7.0 mi South 9.2 mph - N/A   Clear
8:52 AM 50.0 °F - 48.9 °F 96% 29.87 in 4.0 mi South 9.2 mph - N/A   Clear
9:52 AM 55.9 °F - 53.1 °F 90% 29.89 in 4.0 mi SW 10.4 mph - N/A   Clear
10:23 AM 57.9 °F - 54.0 °F 87% 29.89 in 6.0 mi WSW 9.2 mph - N/A   Partly Cloudy
10:52 AM 60.1 °F - 55.0 °F 83% 29.90 in 6.0 mi WSW 11.5 mph - N/A   Haze
11:52 AM 62.1 °F - 54.0 °F 75% 29.90 in 7.0 mi West 9.2 mph - N/A   Clear
12:52 PM 64.0 °F - 53.1 °F 67% 29.89 in 9.0 mi West 6.9 mph - N/A   Clear
1:52 PM 66.9 °F - 53.1 °F 61% 29.86 in 10.0 mi West 8.1 mph - N/A   Clear
2:52 PM 70.0 °F - 52.0 °F 53% 29.86 in 10.0 mi West 9.2 mph - N/A   Clear
3:52 PM 73.0 °F - 48.0 °F 41% 29.86 in 10.0 mi WNW 6.9 mph - N/A   Clear
4:52 PM 75.0 °F - 44.1 °F 33% 29.87 in 10.0 mi WNW 8.1 mph - N/A   Clear
5:52 PM 70.0 °F - 36.0 °F 29% 29.89 in 10.0 mi NW 8.1 mph - N/A   Clear
6:52 PM 59.0 °F - 37.0 °F 44% 29.92 in 10.0 mi WNW 5.8 mph - N/A   Clear
7:52 PM 57.0 °F - 37.9 °F 49% 29.93 in 10.0 mi West 5.8 mph - N/A   Clear
8:52 PM 51.1 °F - 37.9 °F 61% 29.94 in 10.0 mi WSW 5.8 mph - N/A   Clear
9:52 PM 52.0 °F - 37.9 °F 59% 29.95 in 10.0 mi West 6.9 mph - N/A   Clear
10:52 PM 50.0 °F - 37.9 °F 63% 29.95 in 10.0 mi WSW 6.9 mph - N/A   Clear
11:52 PM 51.1 °F - 39.0 °F 63% 29.97 in 10.0 mi West 8.1 mph - N/A   Clear